FW7889 Weather Reports


Display with metric or nautical units.
time (UTC)temp
F
wind
direction
speed
MPH
gust
MPH
rain 1hr
in
rain 24hr
in
rain mn
in
humidity
%
barometer
mb
20260507081414 35 274 0.0 0.0 0.00 0.03 0.03 99 1064.7
20260507080413 35 266 0.0 0.0 0.00 0.03 0.03 98 1064.3
20260507075410 35 249 2.0 2.0 0.00 0.03 0.03 98 1064.2
20260507074410 36 269 0.0 1.0 0.00 0.03 0.03 98 1064.4
20260507073410 36 241 2.0 2.0 0.00 0.03 0.03 99 1064.3
20260507072404 37 267 1.0 1.0 0.00 0.03 0.03 99 1064.2
20260507071404 37 263 3.0 3.0 0.00 0.03 0.03 99 1063.9
20260507070404 38 268 1.0 1.0 0.00 0.03 0.03 99 1064.1
20260507065403 38 254 2.0 2.0 0.00 0.03 0.03 99 1064.2
20260507064359 38 269 1.0 1.0 0.00 0.03 0.03 99 1064.3
20260507063359 38 273 1.0 1.0 0.00 0.03 0.03 99 1064.2
20260507062358 38 269 1.0 1.0 0.00 0.03 0.03 99 1064.3
20260507061354 38 270 0.0 0.0 0.00 0.03 0.03 99 1064.2
20260507060355 38 273 0.0 0.0 0.00 0.03 0.03 99 1064.2
20260507055352 39 295 2.0 2.0 0.00 0.03 0.03 99 1064.3
20260507054351 39 320 3.0 3.0 0.07 0.03 0.03 99 1064.3
20260507053347 40 312 1.0 1.0 0.00 0.02 0.02 99 1064.2
20260507052341 40 303 1.0 2.0 0.05 0.02 0.02 99 1064.1
20260507051337 40 265 1.0 2.0 0.00 0.01 0.01 99 1064.2
20260507050335 40 285 0.0 1.0 0.00 0.01 0.01 99 1063.9
20260507045335 41 267 1.0 2.0 0.07 0.01 0.01 99 1063.9
20260507044335 41 265 2.0 2.0 0.00 0.00 0.00 99 1063.9
20260507043333 41 273 1.0 1.0 0.00 0.00 0.00 99 1063.9
20260507042331 41 288 1.0 1.0 0.00 0.00 0.00 99 1063.7
20260507041331 41 264 0.0 1.0 0.00 0.00 0.00 99 1063.7
20260507040330 41 263 1.0 1.0 0.00 0.00 0.00 99 1063.9
20260507035327 41 267 1.0 1.0 0.00 0.81 0.81 99 1063.6
20260507034322 41 258 1.0 1.0 0.00 0.81 0.81 99 1064.2
20260507033318 41 266 0.0 0.0 0.00 0.81 0.81 99 1063.8
20260507032316 41 263 1.0 1.0 0.00 0.81 0.81 99 1064.1
20260507031316 41 267 1.0 1.0 0.00 0.81 0.81 99 1063.8
20260507030316 41 274 1.0 1.0 0.00 0.81 0.81 99 1063.9
20260507025315 41 269 0.0 0.0 0.00 0.81 0.81 99 1064.2
20260507024315 41 270 0.0 0.0 0.00 0.81 0.81 99 1064.2
20260507023312 41 270 0.0 1.0 0.00 0.81 0.81 99 1064.2
20260507022312 40 277 0.0 0.0 0.00 0.81 0.81 99 1064.2
20260507021310 40 274 0.0 1.0 0.00 0.81 0.81 99 1064.6
20260507020310 40 289 0.0 0.0 0.00 0.81 0.81 99 1064.3
20260507015310 40 275 0.0 0.0 0.00 0.81 0.81 99 1064.6
20260507014309 40 272 0.0 0.0 0.00 0.81 0.81 99 1064.5
20260507013309 41 268 0.0 0.0 0.00 0.81 0.81 99 1064.1
20260507012308 41 265 0.0 0.0 0.00 0.81 0.81 99 1064.5
20260507011308 41 270 0.0 0.0 0.00 0.81 0.81 99 1064.2
20260507010303 41 270 0.0 0.0 0.00 0.81 0.81 99 1064.2
20260507005305 41 269 0.0 0.0 0.00 0.81 0.81 99 1064.2
20260507004303 42 278 0.0 0.0 0.00 0.81 0.81 99 1063.7
20260507003301 42 284 0.0 0.0 0.00 0.81 0.81 99 1063.6
20260507002259 42 299 0.0 1.0 0.00 0.81 0.81 99 1063.4
20260507001254 42 339 2.0 2.0 0.00 0.81 0.81 99 1063.2
20260507000251 42 305 0.0 1.0 0.00 0.81 0.81 99 1063.3
20260506235249 42 305 1.0 1.0 0.00 0.81 0.81 99 1063.6
20260506234244 42 295 0.0 0.0 0.00 0.81 0.81 99 1063.5
20260506233244 42 350 2.0 3.0 0.00 0.81 0.81 99 1063.8
20260506232241 42 306 1.0 1.0 0.00 0.81 0.81 99 1063.6
20260506231237 42 323 3.0 3.0 0.00 0.81 0.81 99 1063.8
20260506230236 42 309 2.0 2.0 0.00 0.81 0.81 99 1063.5
20260506225236 42 357 3.0 5.0 0.00 0.81 0.81 99 1063.8
20260506224236 43 318 1.0 1.0 0.00 0.81 0.81 99 1063.5
20260506223233 43 307 1.0 1.0 0.00 0.81 0.81 99 1063.2
20260506222232 43 334 3.0 5.0 0.00 0.81 0.81 99 1062.9
20260506221228 43 311 3.0 3.0 0.00 0.81 0.81 99 1062.9
20260506220225 43 326 3.0 3.0 0.00 0.81 0.81 99 1062.9
20260506215224 43 304 2.0 2.0 0.00 0.81 0.81 99 1062.7
20260506214224 43 304 1.0 1.0 0.00 0.81 0.81 99 1062.7
20260506213219 44 300 1.0 1.0 0.00 0.81 0.81 99 1062.5
20260506212217 44 309 1.0 1.0 0.00 0.81 0.81 99 1062.0
20260506211215 44 301 2.0 3.0 0.00 0.81 0.81 99 1062.1
20260506210215 44 321 2.0 2.0 0.00 0.81 0.81 99 1062.3
20260506205213 44 316 1.0 1.0 0.07 0.81 0.81 99 1062.2
20260506204208 44 312 1.0 2.0 0.00 0.80 0.80 99 1062.2
20260506203203 44 339 2.0 2.0 0.00 0.80 0.80 99 1062.1
20260506202202 44 326 1.0 2.0 0.00 0.80 0.80 99 1061.9
20260506201202 45 332 3.0 5.0 0.00 0.80 0.80 99 1061.6
20260506200202 44 338 3.0 3.0 0.00 0.80 0.80 99 1061.9
20260506195200 45 317 2.0 2.0 0.05 0.80 0.80 99 1061.9
20260506194200 45 358 5.0 6.0 0.00 0.79 0.79 99 1061.9
20260506193200 45 308 1.0 1.0 0.07 0.79 0.79 99 1061.6
20260506192200 45 318 2.0 2.0 0.00 0.78 0.78 99 1061.8
20260506191158 45 317 3.0 3.0 0.00 0.78 0.78 99 1061.8
20260506190158 45 296 0.0 0.0 0.00 0.78 0.78 99 1061.5
20260506185157 45 338 2.0 2.0 0.05 0.78 0.78 99 1061.3
20260506184152 45 309 0.0 1.0 0.00 0.77 0.77 99 1061.1
20260506183151 45 306 1.0 2.0 0.00 0.77 0.77 99 1061.5
20260506182151 44 252 0.0 0.0 0.00 0.77 0.77 99 1061.4
20260506181146 44 78 3.0 5.0 0.00 0.77 0.77 99 1060.9
20260506180145 44 307 0.0 0.0 0.00 0.77 0.77 99 1061.1
20260506175144 44 286 0.0 0.0 0.00 0.77 0.77 99 1061.2
20260506174139 44 300 0.0 1.0 0.00 0.77 0.77 99 1061.1
20260506173139 44 55 1.0 1.0 0.00 0.77 0.77 99 1061.4
20260506172138 44 297 0.0 1.0 0.00 0.77 0.77 99 1061.3
20260506171134 44 2 1.0 1.0 0.07 0.77 0.77 99 1061.1
20260506170128 43 90 3.0 3.0 0.00 0.76 0.76 99 1061.1
20260506165127 43 303 0.0 1.0 0.05 0.76 0.76 99 1061.2
20260506164127 43 310 0.0 1.0 0.07 0.75 0.75 99 1061.6
20260506163123 42 315 1.0 2.0 0.05 0.74 0.74 99 1061.5
20260506162123 42 314 1.0 1.0 0.07 0.73 0.73 99 1061.8
20260506161121 42 78 0.0 0.0 0.05 0.72 0.72 99 1061.9
20260506160120 42 78 4.0 5.0 0.00 0.71 0.71 99 1061.5
20260506155116 42 59 1.0 2.0 0.05 0.70 0.70 99 1061.6
20260506152924 42 288 0.0 0.0 0.07 0.69 0.69 99 1061.6
20260506151920 42 357 1.0 1.0 0.07 0.68 0.68 99 1061.2
20260506150920 42 311 0.0 1.0 0.05 0.67 0.67 99 1061.5
20260506145919 41 292 0.0 0.0 0.07 0.66 0.66 99 1061.4
20260506144918 41 319 1.0 1.0 0.07 0.64 0.64 99 1061.3
20260506143913 41 86 2.0 2.0 0.12 0.63 0.63 99 1061.3
20260506142908 41 320 0.0 1.0 0.12 0.61 0.61 99 1061.6
20260506141904 41 295 0.0 0.0 0.12 0.59 0.59 99 1061.9
20260506140859 40 75 3.0 5.0 0.19 0.57 0.57 99 1061.9
20260506135859 40 31 1.0 1.0 0.12 0.54 0.54 99 1061.8
20260506134858 40 314 1.0 1.0 0.17 0.52 0.52 99 1061.6
20260506133857 40 323 2.0 2.0 0.12 0.49 0.49 99 1061.8
20260506132855 40 317 1.0 2.0 0.12 0.46 0.46 99 1061.6
20260506131851 41 320 1.0 1.0 0.12 0.44 0.44 99 1061.6
20260506130850 41 313 3.0 3.0 0.12 0.42 0.42 99 1061.4
20260506125850 41 330 2.0 2.0 0.05 0.39 0.39 99 1061.1
20260506124846 41 311 1.0 1.0 0.00 0.37 0.37 99 1061.4
20260506123846 41 280 0.0 0.0 0.07 0.36 0.36 99 1061.5
20260506122842 41 74 2.0 3.0 0.05 0.35 0.35 99 1061.6
20260506121837 40 97 5.0 6.0 0.07 0.34 0.34 99 1061.6
20260506120836 40 333 1.0 1.0 0.12 0.33 0.33 99 1062.0
20260506115831 40 328 1.0 1.0 0.07 0.31 0.31 99 1062.3
20260506114827 40 61 3.0 6.0 0.12 0.30 0.30 99 1061.9
20260506113823 41 66 2.0 3.0 0.12 0.28 0.28 99 1062.4
20260506112822 41 72 2.0 3.0 0.05 0.26 0.26 99 1062.6
20260506111817 41 287 0.0 0.0 0.12 0.24 0.24 99 1063.1
20260506110812 41 308 1.0 1.0 0.12 0.22 0.22 99 1063.0
20260506105812 41 316 2.0 2.0 0.12 0.20 0.20 99 1063.0
20260506104806 41 326 2.0 2.0 0.12 0.17 0.17 99 1062.8
20260506103801 41 298 1.0 2.0 0.05 0.15 0.15 99 1062.6
20260506102801 42 289 0.0 0.0 0.00 0.14 0.14 99 1062.3
20260506101756 42 290 0.0 0.0 0.00 0.14 0.14 99 1062.4
20260506100756 42 58 1.0 1.0 0.07 0.14 0.14 99 1062.7
20260506095753 42 282 0.0 0.0 0.12 0.13 0.13 99 1062.8
20260506094751 42 84 1.0 1.0 0.00 0.11 0.11 99 1062.6
20260506093748 42 310 1.0 1.0 0.00 0.11 0.11 99 1062.5
20260506092748 42 291 0.0 1.0 0.00 0.11 0.11 99 1062.8
20260506091748 42 285 0.0 0.0 0.05 0.11 0.11 99 1062.8
20260506090744 42 314 2.0 2.0 0.00 0.10 0.10 99 1062.8
20260506085743 42 294 0.0 0.0 0.07 0.10 0.10 99 1063.1
20260506084742 42 322 0.0 1.0 0.00 0.09 0.09 99 1063.0
20260506083741 42 289 0.0 0.0 0.00 0.09 0.09 99 1062.9
20260506082736 43 323 1.0 1.0 0.00 0.09 0.09 99 1062.6